Location: Taupo
(38.6830°S, 176.0830°E)
Time: 00:37:56
(UTC+13:00)

ISS - Pass Details

Date: 26 January 2019
Orbit: 403 x 411 km, 51.6° (Epoch: 21 February)

Event Time Altitude Azimuth Distance (km) Brightness Sun altitude
Exits shadow 05:36:15 - 351° (N) 2,149 -0.5 -8.2°
Reaches altitude 10° 05:38:23 10° 11° (NNE) 1,477 -1.2 -7.9°
Maximum altitude 05:40:28 16° 50° (NE) 1,181 -1.2 -7.5°
Drops below altitude 10° 05:42:34 10° 90° (E) 1,486 0.1 -7.2°
Sets 05:45:15 0° 112° (ESE) 2,354 2.3 -6.7°
